{"data":{"norad_id":56452,"epoch":"2026-09-20T13:40:46.113024Z","epoch_age_seconds":105932,"freshness":"FRESH","line1":"1 56452U 23064E   26263.56997816 -.00000051  00000+0  34896-5 0  9998","line2":"2 56452  70.0013  13.2407 0003170 270.3126  89.7670 14.98330246184431","mean_motion":14.98330246,"eccentricity":0.000317,"inclination_deg":70.0013,"raan_deg":13.2407,"arg_perigee_deg":270.3126,"mean_anomaly_deg":89.767,"bstar":3.4896e-6,"rev_number":18443,"period_min":96.106983346581,"perigee_km":569.85191930454,"apogee_km":574.25834111509,"semimajor_km":6950.1921302098,"source":"CELESTRAK","updated_at":"2026-09-21T09:00:33.441682Z"}}